Terug naar catalogus

FENGYUN 1C DEB

ActiefSSO
NORAD 29784·DEBRIS·🇨🇳 China

Gelanceerd May 10, 1999 vanaf Taiyuan Satellite Launch Center

Loading…

Volgende Passages (komende 24 uur)

TLE

VersSource: Space-Track

Epoch: Sep 14, 2026, 06:56 UTC

1 29784U 99025CA  26257.28922392  .00000636  00000-0  25388-3 0  9998
2 29784  98.9512 189.2023 0058316 213.4813 307.2514 14.31194314 22979

Volg FENGYUN 1C DEB in realtime met AllMySat

Download on the App Store